Temp
50 51 50 50 50 51 52 52 51 50 52 53 55 55 55 55 56 56 57 59 57 56 58 59 61 63 63 61 61 60 59 58 55 53 55 55 55 57 57 58 60 59 58
50 48 47 48 51 50 50 50 51 51 52 53 53 54 54 55 55 55 56 58 58 58 57 58 60 62 61 60 59 58 56 56 54 51 51 53 55 56 55 56 57 61 59
47 46 47 48 48 48 48 49 50 50 51 52 53 52 53 54 55 55 56 57 57 58 56 57 59 60 59 56 54 55 54 54 53 51 51 55 54 55 55 55 56 55 58
46 46 46 46 45 46 47 48 48 49 49 50 51 51 52 53 54 55 57 56 56 57 57 58 59 59 56 53 53 52 53 53 51 51 48 48 52 53 53 50 50 51 51
44 45 43 44 45 46 46 46 47 47 48 48 49 50 51 53 55 54 55 55 55 53 53 54 55 57 57 55 53 51 51 49 48 49 48 49 48 48 47 48 48 48 49
43 42 43 43 44 45 45 45 45 45 46 47 47 49 51 54 51 51 54 55 52 51 49 50 52 53 53 53 53 53 52 49 47 47 48 47 47 48 48 47 46 44 44
41 41 42 43 44 44 44 44 43 43 44 44 44 46 45 46 46 48 50 49 47 47 47 48 48 50 51 51 52 52 52 52 52 50 47 47 47 47 47 46 45 43 43
39 40 42 43 43 44 43 43 43 43 42 42 43 43 44 44 45 46 47 46 45 46 46 47 47 47 48 49 49 48 48 48 49 50 48 48 49 48 47 46 44 43 44
40 41 42 43 42 42 42 42 42 42 41 41 42 42 42 43 44 44 46 45 45 44 46 46 46 46 46 46 49 47 47 45 49 49 48 46 45 46 47 46 42 40 40
40 40 41 41 41 41 41 42 42 42 41 42 42 42 44 42 42 43 45 47 44 44 45 46 46 46 44 45 48 47 45 46 50 49 48 48 46 46 49 48 48 45 44
40 39 39 40 40 41 41 41 41 41 42 42 42 42 42 43 42 42 43 45 45 45 45 44 43 43 43 44 46 48 48 48 49 47 46 49 49 49 50 50 49 48 45
39 38 38 39 40 40 40 41 41 41 41 41 41 41 42 43 44 43 42 43 44 43 42 42 43 42 42 42 45 44 44 45 46 47 49 48 49 50 49 48 49 49 48
38 37 38 39 39 40 39 39 40 41 41 41 41 40 40 43 43 43 43 43 45 43 43 44 44 43 45 47 45 45 47 51 50 50 48 48 48 48 48 47 48 49 48
38 37 37 38 39 39 40 39 39 39 40 40 39 39 40 41 41 40 41 42 46 48 47 49 48 47 47 48 49 50 51 50 50 48 47 48 49 48 46 47 45 43 42
38 38 38 38 38 39 39 37 38 38 38 38 37 38 38 38 40 40 41 45 46 45 47 50 49 48 46 46 46 46 48 50 48 48 47 47 48 48 47 46 44 42 37
38 38 38 38 38 37 38 37 42 41 42 42 41 39 39 40 40 43 43 42 43 44 46 43 42 42 43 42 41 42 47 47 46 48 47 47 46 46 45 45 44 40 35
37 37 37 38 38 38 40 39 37 42 42 42 41 41 41 41 41 42 42 43 41 44 42 41 40 40 40 40 40 42 45 46 47 47 46 45 46 45 43 43 42 40 39
40 42 39 39 41 40 40 41 40 38 38 42 45 43 42 42 42 41 42 44 43 42 41 39 39 39 41 43 44 46 45 45 45 45 45 44 43 43 42 41 40 39 38
42 42 42 42 42 43 42 43 43 43 44 44 46 45 43 42 41 41 42 41 39 38 39 38 38 38 37 38 39 45 45 43 43 44 43 42 41 41 40 39 39 36 36
43 43 43 43 43 44 44 44 44 43 43 43 43 41 44 44 41 40 40 40 38 38 38 37 38 38 37 37 36 42 43 42 42 42 41 42 42 41 40 39 39 38 38
44 44 39 44 44 44 43 42 41 42 42 43 42 40 36 42 39 36 38 38 38 38 37 37 36 37 37 37 36 39 40 41 41 41 41 41 41 39 40 39 39 39 39
43 44 45 45 45 45 44 43 43 43 42 41 40 42 37 40 39 38 37 37 36 37 37 37 36 36 35 34 37 38 38 39 39 40 40 40 40 40 40 39 39 39 38
44 45 47 46 45 42 44 45 45 44 43 42 41 42 41 39 38 36 37 37 37 37 37 36 35 35 35 37 38 38 37 37 38 41 39 39 39 39 39 39 38 38 37
45 47 47 46 46 45 44 43 42 40 44 43 42 41 38 37 37 37 36 35 35 36 36 36 34 34 37 39 40 40 39 38 42 41 41 39 39 39 39 38 37 37 37
47 46 46 45 45 44 44 43 43 42 42 43 42 41 39 39 37 37 35 34 35 35 35 35 34 36 38 39 39 39 35 34 38 36 41 41 39 39 39 38 37 36 37
48 47 46 45 44 44 43 42 41 41 41 42 41 39 39 37 36 35 34 34 34 34 35 35 35 37 37 38 37 35 34 35 37 35 41 40 39 38 38 37 37 36 36
MSLP
1013.15 1012.62 1011.96 1011.24 1010.47 1009.65 1008.81 1008.05 1007.44 1006.91 1006.42 1005.74 1005.17 1004.70 1004.26 1003.88 1003.65 1003.44 1003.19 1002.96 1002.96 1002.92 1002.84 1002.70 1002.39 1002.08 1002.10 1002.05 1002.11 1002.34 1002.52 1002.91 1004.10 1005.20 1005.49 1005.91 1006.27 1006.48 1006.77 1007.04 1007.14 1007.32 1007.64
1013.21 1012.65 1011.91 1011.03 1010.00 1009.25 1008.45 1007.69 1006.93 1006.06 1005.47 1004.88 1004.31 1003.74 1003.28 1002.89 1002.65 1002.60 1002.48 1002.32 1002.27 1002.12 1002.04 1002.03 1001.74 1001.66 1001.57 1001.56 1001.66 1001.86 1002.11 1002.44 1003.43 1004.84 1005.56 1006.05 1006.14 1006.49 1006.77 1007.11 1007.34 1007.29 1007.34
1013.32 1012.61 1011.66 1010.78 1009.91 1009.05 1008.09 1007.14 1006.27 1005.42 1004.61 1003.90 1003.31 1002.68 1002.21 1001.90 1001.72 1001.60 1001.65 1001.63 1001.68 1001.64 1001.61 1001.56 1001.30 1001.22 1001.07 1001.26 1001.52 1001.88 1002.08 1002.62 1002.91 1003.88 1005.35 1005.98 1006.26 1006.50 1006.95 1007.10 1007.16 1007.08 1006.79
1013.34 1012.50 1011.58 1010.76 1009.92 1008.82 1007.65 1006.63 1005.71 1004.76 1003.82 1003.04 1002.33 1001.63 1001.02 1000.58 1000.49 1000.58 1000.59 1000.85 1001.02 1001.04 1000.94 1000.78 1000.50 1000.39 1000.50 1001.01 1001.58 1001.98 1002.39 1002.86 1003.60 1004.24 1005.64 1006.28 1006.42 1006.80 1007.01 1007.26 1007.49 1007.57 1007.56
1013.25 1012.35 1011.64 1010.70 1009.62 1008.45 1007.24 1006.19 1005.33 1004.44 1003.54 1002.63 1001.62 1000.64 999.88 999.49 999.31 999.55 999.89 1000.23 1000.53 1000.77 1000.82 1000.70 1000.50 1000.22 1000.53 1000.94 1001.49 1002.28 1002.56 1003.28 1004.00 1005.17 1005.56 1006.21 1006.78 1007.18 1007.54 1007.94 1008.03 1008.01 1007.66
1013.27 1012.53 1011.67 1010.60 1009.46 1008.32 1007.24 1006.25 1005.35 1004.45 1003.58 1002.64 1001.61 1000.33 999.48 999.02 998.75 999.02 999.41 999.84 1000.36 1000.86 1001.07 1001.12 1001.19 1001.19 1001.36 1001.75 1002.11 1002.58 1002.58 1002.92 1004.20 1005.05 1005.80 1006.22 1006.81 1007.25 1007.66 1008.03 1008.21 1008.45 1008.18
1013.53 1012.74 1011.72 1010.68 1009.61 1008.58 1007.57 1006.68 1005.88 1005.03 1004.13 1003.12 1002.24 1001.20 1000.50 999.80 998.52 998.56 999.54 1000.24 1000.85 1001.38 1001.61 1001.70 1001.98 1002.33 1002.25 1002.52 1002.90 1003.24 1003.45 1003.72 1004.07 1005.10 1005.94 1006.56 1007.11 1007.38 1007.69 1008.04 1008.31 1008.52 1008.57
1013.72 1012.86 1011.84 1010.85 1009.94 1009.02 1008.02 1007.21 1006.54 1005.86 1005.06 1004.22 1003.31 1002.53 1001.85 1001.24 1000.28 999.94 1000.07 1000.99 1001.58 1002.19 1002.46 1002.42 1002.89 1003.20 1003.38 1003.42 1003.74 1004.12 1004.56 1005.00 1005.22 1005.63 1006.03 1006.68 1007.27 1007.61 1007.63 1007.84 1008.20 1008.40 1008.45
1013.80 1012.99 1012.20 1011.35 1010.50 1009.64 1008.70 1008.07 1007.46 1006.63 1005.99 1005.30 1004.57 1003.76 1003.32 1003.03 1002.50 1002.15 1001.54 1001.60 1002.58 1003.16 1003.46 1003.70 1003.95 1004.21 1004.36 1004.38 1004.48 1004.82 1005.29 1005.92 1006.12 1006.16 1006.53 1006.92 1007.50 1007.78 1007.83 1007.81 1008.22 1008.50 1008.67
1014.21 1013.59 1012.85 1012.08 1011.18 1010.39 1009.65 1008.95 1008.36 1007.68 1007.08 1006.42 1005.74 1005.32 1004.81 1004.58 1004.02 1003.48 1003.60 1003.47 1003.58 1004.18 1004.64 1004.94 1005.13 1005.13 1005.12 1005.30 1005.38 1005.61 1006.02 1006.52 1006.68 1006.80 1007.00 1007.21 1007.81 1007.93 1008.00 1008.00 1008.05 1008.28 1008.51
1014.82 1014.14 1013.42 1012.70 1011.98 1011.25 1010.64 1009.92 1009.28 1008.68 1008.12 1007.46 1006.94 1006.62 1006.20 1005.93 1005.69 1005.08 1005.32 1005.08 1005.06 1005.22 1005.74 1006.13 1006.25 1006.12 1006.01 1005.94 1005.88 1006.01 1006.33 1006.74 1006.88 1007.01 1007.15 1007.58 1007.78 1007.80 1007.93 1007.95 1008.09 1008.15 1008.32
1015.28 1014.65 1014.02 1013.38 1012.76 1012.20 1011.50 1010.87 1010.28 1009.84 1009.33 1008.83 1008.36 1007.98 1007.48 1007.26 1007.14 1007.14 1007.00 1006.67 1006.52 1006.53 1006.89 1006.94 1006.76 1006.56 1006.39 1006.35 1006.36 1006.38 1006.74 1007.03 1007.11 1007.28 1007.48 1007.82 1007.99 1008.23 1008.39 1008.32 1008.27 1008.33 1008.45
1015.81 1015.26 1014.72 1014.10 1013.56 1013.02 1012.50 1012.05 1011.47 1011.10 1010.68 1010.29 1009.93 1009.67 1009.36 1009.03 1008.61 1008.27 1007.98 1007.72 1007.55 1007.59 1007.40 1007.24 1007.14 1006.98 1006.80 1006.94 1007.13 1007.06 1007.05 1007.14 1007.43 1007.69 1008.18 1008.50 1008.62 1008.71 1008.76 1008.71 1008.58 1008.60 1008.76
1016.37 1016.00 1015.47 1014.88 1014.48 1013.98 1013.40 1013.13 1012.90 1012.54 1012.04 1011.70 1011.37 1011.01 1010.52 1009.93 1009.48 1009.28 1008.91 1008.52 1008.21 1008.01 1007.83 1007.77 1007.64 1007.67 1007.68 1007.77 1007.71 1007.83 1008.00 1008.05 1008.25 1008.54 1008.78 1008.94 1008.93 1009.03 1008.94 1008.76 1009.14 1009.33 1009.20
1017.08 1016.77 1016.30 1015.87 1015.57 1015.12 1014.66 1014.43 1014.10 1013.62 1013.23 1012.87 1012.70 1012.36 1011.86 1011.27 1010.93 1010.26 1009.58 1009.22 1009.04 1008.94 1008.66 1008.65 1008.79 1008.90 1009.00 1009.07 1009.14 1009.15 1009.01 1008.96 1009.12 1009.34 1009.36 1009.34 1009.26 1009.16 1009.26 1009.32 1009.49 1009.52 1009.56
1017.93 1017.57 1017.22 1016.75 1016.35 1015.93 1015.62 1015.19 1014.34 1013.95 1013.28 1012.68 1012.62 1012.66 1012.35 1012.10 1011.42 1010.91 1010.62 1010.44 1010.20 1009.92 1010.06 1010.42 1010.62 1010.58 1010.63 1010.68 1010.52 1010.16 1010.00 1009.98 1009.98 1009.84 1009.77 1009.72 1009.78 1009.81 1009.77 1009.80 1009.80 1009.84 1009.95
1018.56 1018.17 1017.83 1017.44 1017.06 1016.66 1016.24 1016.00 1015.62 1014.71 1014.30 1014.04 1013.69 1013.27 1013.02 1012.66 1012.24 1012.01 1011.74 1011.55 1011.48 1011.27 1011.76 1012.05 1012.05 1011.95 1011.72 1011.40 1011.10 1011.09 1011.09 1010.95 1010.68 1010.52 1010.47 1010.47 1010.35 1010.24 1010.22 1010.18 1010.16 1010.08 1010.00
1018.86 1018.49 1018.12 1017.74 1017.34 1016.90 1016.45 1016.08 1015.80 1015.62 1015.32 1014.86 1014.52 1014.27 1013.94 1013.74 1013.51 1013.28 1013.03 1012.64 1012.95 1013.09 1013.23 1013.27 1013.20 1013.06 1012.84 1012.64 1012.30 1011.96 1011.79 1011.54 1011.32 1011.20 1011.11 1011.08 1010.90 1010.80 1010.62 1010.52 1010.39 1010.38 1010.36
1019.09 1018.75 1018.31 1017.97 1017.55 1017.26 1016.92 1016.69 1016.49 1016.29 1016.14 1015.92 1015.50 1015.29 1015.15 1014.88 1014.76 1014.65 1014.43 1014.46 1014.55 1014.54 1014.52 1014.41 1014.36 1014.20 1013.98 1013.60 1013.22 1012.67 1012.42 1012.34 1012.12 1011.92 1011.68 1011.53 1011.37 1011.17 1010.96 1010.90 1010.83 1010.76 1010.73
1019.18 1018.80 1018.48 1018.24 1018.01 1017.78 1017.62 1017.51 1017.37 1017.24 1017.16 1017.06 1016.88 1016.82 1016.45 1016.01 1016.20 1016.18 1016.02 1015.94 1015.95 1015.92 1015.76 1015.54 1015.26 1015.00 1014.76 1014.40 1013.99 1013.49 1013.22 1012.97 1012.61 1012.30 1012.09 1011.76 1011.46 1011.33 1011.35 1011.36 1011.26 1011.12 1010.99
1019.46 1019.26 1018.94 1018.74 1018.62 1018.55 1018.43 1018.32 1018.14 1018.08 1018.03 1017.95 1017.90 1017.78 1017.46 1017.44 1017.60 1017.65 1017.59 1017.35 1017.15 1016.94 1016.72 1016.43 1016.10 1015.71 1015.37 1015.09 1014.75 1014.37 1013.97 1013.53 1013.14 1012.78 1012.35 1011.98 1011.84 1011.84 1011.76 1011.66 1011.50 1011.29 1011.15
1020.05 1019.75 1019.39 1019.26 1019.12 1019.10 1019.11 1018.96 1018.87 1018.86 1018.82 1018.80 1018.80 1018.71 1018.57 1018.62 1018.68 1018.67 1018.56 1018.41 1018.18 1017.85 1017.45 1017.08 1016.83 1016.61 1016.37 1016.03 1015.56 1015.06 1014.62 1014.17 1013.62 1013.11 1012.76 1012.56 1012.40 1012.25 1012.03 1011.80 1011.58 1011.42 1011.29
1020.45 1020.10 1019.84 1019.71 1019.66 1019.76 1019.73 1019.66 1019.65 1019.62 1019.60 1019.59 1019.66 1019.68 1019.62 1019.71 1019.74 1019.67 1019.49 1019.24 1018.88 1018.51 1018.13 1017.83 1017.68 1017.35 1016.89 1016.39 1015.94 1015.56 1015.07 1014.60 1014.09 1013.63 1013.35 1013.13 1012.87 1012.57 1012.22 1012.01 1011.85 1011.69 1011.66
1020.64 1020.23 1020.20 1020.22 1020.17 1020.25 1020.36 1020.42 1020.42 1020.44 1020.48 1020.49 1020.58 1020.69 1020.75 1020.67 1020.49 1020.34 1020.18 1019.96 1019.65 1019.28 1018.98 1018.71 1018.43 1018.09 1017.43 1016.81 1016.28 1015.80 1015.41 1014.97 1014.42 1014.14 1013.84 1013.61 1013.24 1012.90 1012.58 1012.37 1012.27 1012.06 1012.00
1020.63 1020.49 1020.56 1020.63 1020.74 1020.94 1021.08 1021.18 1021.28 1021.33 1021.37 1021.43 1021.51 1021.49 1021.42 1021.36 1021.21 1021.18 1021.12 1020.82 1020.47 1020.15 1019.89 1019.55 1019.14 1018.63 1018.02 1017.42 1016.89 1016.36 1015.94 1015.46 1015.05 1014.75 1014.37 1014.00 1013.70 1013.40 1013.07 1012.82 1012.58 1012.40 1012.36
1020.97 1020.85 1021.01 1021.19 1021.46 1021.58 1021.76 1021.91 1022.07 1022.22 1022.36 1022.34 1022.28 1022.22 1022.24 1022.26 1022.24 1022.22 1021.98 1021.67 1021.39 1021.00 1020.62 1020.22 1019.71 1019.12 1018.54 1017.98 1017.61 1017.13 1016.59 1016.19 1015.80 1015.42 1014.91 1014.51 1014.24 1013.93 1013.58 1013.29 1013.04 1012.88 1012.83
Wind_Speed
10 13 14 13 13 13 14 16 15 13 15 15 14 14 15 14 13 12 12 13 9 8 9 10 11 9 7 4 4 4 4 4 4 1 2 2 3 4 4 3 2 2 1
13 13 14 14 14 15 14 16 15 16 15 15 15 15 15 14 14 12 12 10 9 9 5 7 9 6 8 6 5 6 5 4 5 4 2 1 3 5 5 3 2 2 3
12 13 14 15 15 16 16 16 16 16 16 15 15 15 15 14 14 13 13 11 10 9 6 8 10 8 6 3 3 5 5 3 5 5 3 2 3 3 2 2 2 3 2
15 15 14 15 16 16 16 16 15 15 15 14 14 15 15 15 14 12 12 9 9 9 6 6 7 7 6 8 6 7 7 7 7 6 5 3 4 4 4 3 3 3 3
14 13 15 15 16 16 15 14 14 13 12 12 13 14 14 12 9 11 10 8 5 5 3 4 4 9 14 10 8 7 9 8 8 7 6 5 3 3 3 2 1 1 1
13 14 15 15 15 15 13 13 13 12 11 11 11 11 8 4 7 11 8 6 8 8 8 9 10 16 19 18 16 11 9 14 9 5 4 7 4 3 2 1 0 1 1
13 14 14 14 14 13 13 12 13 13 12 12 12 12 12 12 11 14 13 9 10 8 8 9 11 9 14 14 20 20 18 17 12 8 8 4 3 2 3 2 1 1 1
12 13 13 13 13 13 13 13 13 11 11 10 12 13 13 14 22 18 24 14 13 13 10 11 10 9 8 10 11 12 11 9 8 6 7 5 5 3 4 3 3 1 1
13 12 13 12 12 12 12 13 12 11 11 11 11 14 15 16 23 18 16 14 15 15 11 11 10 10 10 9 11 11 11 7 8 10 9 10 8 7 3 3 3 4 2
13 12 12 12 12 12 12 12 11 9 11 10 13 13 20 16 24 23 13 9 15 11 11 11 14 9 12 10 8 8 9 4 5 5 4 5 3 4 4 4 3 3 1
10 10 11 11 10 11 11 11 11 11 12 12 13 14 16 17 20 27 22 9 8 9 8 6 6 12 9 8 8 6 4 3 4 4 3 3 3 3 3 2 1 1 1
10 10 11 10 9 9 11 11 12 11 12 13 13 12 12 14 22 21 20 19 15 9 6 5 6 12 10 8 5 3 3 2 3 4 5 4 5 6 5 4 5 6 5
10 11 10 10 9 9 11 11 9 10 10 10 9 9 9 8 8 16 14 14 13 6 4 6 8 10 10 9 13 11 7 6 7 8 7 5 3 3 3 2 6 5 5
10 10 10 9 10 10 8 8 8 8 9 9 9 9 9 9 8 9 7 5 7 6 6 7 9 11 15 13 12 12 9 8 7 6 5 3 2 2 2 3 3 3 2
10 9 9 8 9 8 8 6 6 4 4 5 6 7 7 9 8 9 7 8 7 8 7 9 9 9 9 9 9 8 7 8 7 4 4 3 4 4 3 2 2 2 1
10 6 7 6 6 6 6 6 10 11 15 16 13 8 4 5 9 17 20 19 18 16 11 9 8 7 8 6 6 6 8 8 5 5 5 5 4 3 3 3 3 3 2
5 5 4 6 5 5 4 4 5 8 8 9 12 17 17 15 19 18 17 21 19 16 10 8 7 7 6 6 5 6 5 5 5 5 5 4 3 3 3 3 4 3 3
5 5 4 4 4 5 6 6 4 5 5 6 13 15 20 23 22 19 16 15 12 12 9 8 8 8 7 7 5 6 6 6 6 6 5 5 5 4 3 4 4 5 4
4 4 5 4 4 5 5 6 6 7 7 7 8 11 12 18 18 19 16 10 9 9 8 9 7 7 6 6 5 5 6 6 5 5 4 4 4 3 4 4 4 5 4
4 8 5 4 4 6 6 6 7 7 7 7 8 6 7 11 11 10 10 9 8 7 7 7 7 6 6 6 5 6 5 5 5 4 3 3 3 4 4 4 4 3 3
4 3 5 4 4 5 4 5 5 6 6 7 8 8 9 9 8 6 7 8 7 7 6 6 6 6 7 6 6 5 5 5 5 5 4 5 5 4 4 3 3 3 3
4 3 3 4 4 5 5 4 5 6 6 6 5 8 10 7 7 7 7 7 6 6 6 6 7 6 6 5 6 6 5 5 5 6 5 5 5 4 4 4 3 3 3
5 4 3 4 4 5 5 6 6 6 6 6 6 6 7 6 6 6 7 6 7 7 7 8 7 6 6 6 5 5 5 5 5 5 5 5 5 5 4 3 4 3 3
4 3 2 4 4 5 5 5 5 7 8 7 7 6 5 4 6 8 7 7 7 7 7 7 6 8 8 7 6 6 5 6 5 6 7 5 5 5 4 4 4 4 3
3 4 5 5 5 5 6 6 6 7 7 6 6 6 6 7 8 8 7 6 7 8 8 7 7 9 10 12 11 12 10 9 9 6 5 6 7 7 6 5 5 4 5
3 5 5 5 5 5 5 6 6 5 5 6 6 7 7 8 8 7 7 7 7 7 9 7 9 13 14 10 12 11 10 10 9 8 6 6 6 6 6 6 8 5 6
Wind_Direction
337 322 317 314 310 308 309 306 301 290 286 284 281 275 271 267 265 263 256 247 240 250 253 253 257 249 248 227 230 211 185 146 164 117 86 116 105 126 97 109 143 139 198
325 323 317 309 313 311 308 303 297 291 286 283 279 273 268 264 257 253 257 261 257 245 241 248 253 254 239 229 210 189 151 144 140 118 94 150 117 134 145 124 221 222 219
328 323 318 323 316 314 310 304 301 296 291 286 279 271 267 259 255 243 243 243 243 253 246 257 262 254 245 179 151 139 121 114 104 125 122 204 112 124 131 127 63 19 34
333 324 325 328 321 312 310 308 303 300 295 289 283 276 266 259 245 241 239 232 230 241 244 243 241 225 179 139 127 122 121 105 87 101 99 86 86 58 87 67 33 26 322
329 331 330 321 318 314 315 318 316 312 307 299 293 283 266 254 239 224 228 224 202 139 112 95 70 109 113 118 132 127 126 111 113 128 111 104 90 78 79 36 350 297 282
336 333 326 325 321 328 334 335 334 335 335 338 338 344 6 309 235 211 210 214 136 127 111 89 85 87 87 92 99 108 129 129 127 109 117 120 125 120 120 161 205 349 1
338 329 329 326 336 341 342 349 356 351 353 1 1 10 21 7 330 209 123 102 100 95 94 97 88 84 91 96 89 87 79 78 88 115 116 98 97 123 131 115 148 130 234
333 330 333 342 346 348 355 1 2 357 2 8 14 22 29 25 34 77 100 96 87 78 78 81 88 87 85 99 102 94 82 70 74 88 91 93 90 127 138 152 155 185 289
340 348 350 351 354 356 8 8 5 7 10 18 22 32 40 37 35 39 78 88 88 78 64 70 75 77 69 66 93 97 88 66 62 88 98 109 117 113 115 102 60 74 29
355 356 353 353 0 7 10 12 8 11 20 26 36 35 43 45 37 38 45 78 88 86 72 62 59 68 59 54 81 85 82 82 110 100 100 94 117 76 65 57 41 73 92
0 355 359 2 3 10 21 19 17 22 28 35 41 40 43 43 43 42 30 50 73 84 78 65 44 35 42 69 81 90 103 143 147 132 135 75 54 48 39 24 269 161 153
8 5 9 7 13 15 23 23 24 28 32 36 38 42 34 29 33 29 31 42 45 60 53 30 17 7 6 7 12 308 119 100 106 89 88 76 74 74 57 40 41 70 68
18 16 17 20 19 27 32 27 29 27 32 31 30 31 24 15 19 18 19 29 37 41 32 33 18 12 33 73 64 81 92 80 81 75 75 65 62 105 103 65 57 53 52
25 23 21 26 37 29 34 38 35 24 31 30 23 21 15 8 10 3 355 6 8 27 24 52 58 63 61 53 51 47 54 57 62 63 60 52 41 42 54 54 49 359 4
34 33 37 36 34 28 28 28 17 17 44 19 12 4 1 358 341 344 32 36 31 32 51 53 49 50 48 43 43 45 56 55 52 39 53 49 48 34 29 40 31 23 28
60 38 20 17 19 18 20 5 350 3 2 351 358 6 332 325 349 51 51 46 46 47 53 49 42 38 52 49 44 44 43 38 24 28 27 30 36 23 13 37 19 31 14
27 5 1 13 5 5 5 12 351 342 336 346 358 49 57 48 38 39 46 53 42 50 51 46 46 38 33 31 35 46 38 25 21 32 32 14 7 17 10 24 13 14 14
359 6 352 343 351 350 352 353 7 18 15 16 32 44 46 49 44 41 35 50 43 39 46 41 35 31 26 27 19 38 29 22 23 20 21 14 8 14 12 17 16 15 4
335 339 338 339 335 349 1 20 30 36 39 41 37 33 27 43 43 38 37 50 47 39 32 35 28 28 22 20 7 26 34 24 14 15 14 15 3 7 19 15 4 360 342
340 348 20 6 17 20 25 35 37 39 40 41 44 28 36 47 44 40 37 39 38 35 28 28 25 23 19 16 11 16 15 8 0 358 345 346 4 18 15 358 350 348 333
14 24 16 36 30 28 20 23 26 43 49 50 50 43 43 55 46 31 39 36 34 31 22 20 17 18 16 13 9 7 360 354 348 338 351 14 21 15 357 343 333 325 326
21 12 48 39 21 17 16 37 44 47 47 50 40 45 38 44 44 40 33 27 17 19 16 20 20 15 5 359 358 356 349 349 354 356 11 12 8 353 337 327 340 356 10
350 335 359 2 15 27 43 47 50 51 48 46 47 49 44 46 47 42 40 30 24 21 18 20 17 7 360 355 351 342 354 353 340 358 8 1 350 345 341 12 11 11 32
293 274 358 46 55 57 54 48 45 46 57 57 56 52 49 47 52 44 34 25 19 16 20 18 10 4 0 3 3 5 5 360 5 6 9 358 356 0 9 27 36 12 33
10 77 81 79 73 66 62 57 53 48 46 55 60 57 53 50 45 38 24 19 19 16 10 7 7 4 8 9 12 15 6 6 20 0 9 17 25 28 27 28 39 34 50
46 75 80 72 68 69 70 68 60 52 55 64 63 60 57 50 45 37 25 22 19 14 11 7 4 14 10 8 7 3 6 10 14 7 20 32 38 30 28 30 38 41 50